EDT,Max TemperatureF,Mean TemperatureF,Min TemperatureF,Max Dew PointF,MeanDew PointF,Min DewpointF,Max Humidity, Mean Humidity, Min Humidity, Max Sea Level PressureIn, Mean Sea Level PressureIn, Min Sea Level PressureIn, Max VisibilityMiles, Mean VisibilityMiles, Min VisibilityMiles, Max Wind SpeedMPH, Mean Wind SpeedMPH, Max Gust SpeedMPH,PrecipitationIn, CloudCover, Events, WindDirDegrees
2013-4-1,51,44,39,47,42,20,96,87,45,29.78,29.67,29.62,10,6,1,30,21,39,0.11,5,Rain,229
2013-4-2,51,42,33,19,16,11,48,37,20,29.99,29.90,29.81,10,10,10,26,18,38,0.00,1,,279
2013-4-3,50,42,33,27,16,11,60,38,23,30.15,30.02,29.97,10,10,10,29,18,39,0.00,0,,274
2013-4-4,45,39,34,33,22,15,73,51,35,30.32,30.23,30.14,10,10,10,22,16,32,0.00,0,,266
2013-4-5,48,42,39,45,40,32,93,86,63,30.13,29.84,29.65,10,8,4,15,9,26,0.34,4,Rain,303
2013-4-6,43,40,32,31,20,13,69,47,31,30.36,30.17,29.86,10,10,10,23,15,33,0.00,0,,319
2013-4-7,48,37,28,41,31,23,85,69,50,30.35,30.26,30.10,10,10,10,20,8,,0.00,1,,173
2013-4-8,62,52,42,44,41,36,90,75,48,30.14,30.07,30.01,10,8,5,15,11,,0.00,1,,196
2013-4-9,63,52,43,47,44,40,100,85,57,30.13,29.99,29.88,10,5,0,23,11,32,0.00,3,Fog-Rain,154
2013-4-10,54,47,42,45,42,40,100,88,71,30.00,29.92,29.85,10,6,0,18,11,29,0.16,5,Fog-Rain,96
2013-4-11,52,48,44,45,41,34,96,82,54,30.12,29.94,29.79,10,6,0,21,9,30,0.02,7,Fog-Rain,38
2013-4-12,53,46,39,52,41,31,100,85,58,30.13,29.84,29.64,10,4,0,30,14,41,1.35,8,Fog-Rain,88
2013-4-13,48,42,39,43,38,35,93,83,66,29.96,29.80,29.62,10,9,2,26,16,38,0.09,6,Rain,324
2013-4-14,55,47,39,42,37,29,93,71,45,30.20,30.03,29.96,10,10,6,15,9,,0.00,4,,265
2013-4-15,53,44,37,39,35,31,93,69,47,30.43,30.34,30.20,10,10,10,13,9,,0.00,0,,75
2013-4-16,53,46,39,47,41,37,93,82,66,30.44,30.35,30.17,10,10,7,20,11,,0.00,2,,161
2013-4-17,60,51,39,48,42,30,94,74,35,30.33,30.19,30.12,10,8,3,18,13,26,0.03,4,Rain,226
2013-4-18,54,46,39,45,39,34,89,74,50,30.42,30.34,30.19,10,10,10,20,10,28,0.00,1,,117
2013-4-19,59,52,48,55,51,46,100,91,81,30.17,29.99,29.82,10,3,0,29,15,37,0.01,8,Fog-Rain,178
2013-4-20,57,52,46,55,48,38,100,88,68,30.18,29.88,29.75,10,5,0,28,20,45,0.85,4,Fog-Rain,230
2013-4-21,48,42,36,39,26,23,71,51,41,30.65,30.49,30.21,10,10,10,18,13,25,0.00,0,,9
2013-4-22,50,42,36,37,31,27,74,61,48,30.69,30.62,30.53,10,10,10,23,12,29,0.00,3,,67
2013-4-23,46,44,42,45,42,36,93,89,76,30.50,30.24,29.91,9,4,2,26,16,37,1.67,8,Rain,43
2013-4-24,53,48,44,48,44,43,94,87,74,30.00,29.89,29.76,10,7,2,32,24,43,0.22,5,Rain,282
2013-4-25,55,48,42,50,45,38,94,82,53,30.26,30.08,29.94,10,7,3,17,13,22,0.06,4,Rain,240
2013-4-26,61,50,39,41,38,34,89,67,39,30.42,30.36,30.26,10,10,9,14,7,,0.00,0,,69
2013-4-27,55,45,35,43,35,29,97,73,37,30.42,30.39,30.34,10,7,0,9,2,,0.00,1,Fog,148
2013-4-28,57,46,37,43,39,34,96,73,53,30.38,30.32,30.29,10,10,8,9,3,,0.00,0,,195
2013-4-29,59,51,42,45,37,25,89,67,29,30.31,30.28,30.27,10,10,7,9,4,,0.00,0,,147
2013-4-30,63,52,41,41,31,20,86,51,20,30.37,30.32,30.26,10,10,10,13,6,,0.00,0,,73